Flag for U.S.A. Weather past 2 weeks in Salem, Oregon, U.S.A.

Now
70 °F

Partly sunny.


Feels Like: 76 °F
Forecast: 60 / 80 °F
Wind: 8 mph from Northwest

Location: McNary Field

Current Time: Aug 21, 2014 at 9:13:23 PM

Latest Report: Aug 21, 2014 at 8:56 PM


Visibility: 10 mi

Pressure: 29.94 "Hg

Humidity: 31%

Dew point: 38 °F

Location of SalemLocation

Historic Weather in Salem — Graph

°F

Salem temperature yesterday

Maximum temperature yesterday: 79 °F (at 4:56 PM)
Minimum temperature yesterday: 59 °F (at 11:56 PM)
Average temperature yesterday: 68 °F

Past Weeks' High & Low Weather Summary

 TemperatureHumidityPressure
High98 °F (Aug 11, 5:56 PM)93% (Aug 14, 5:56 AM)30.12 "Hg (Aug 14, 5:56 AM)
Low49 °F (Aug 21, 5:56 AM)16% (Aug 21, 3:56 PM)29.76 "Hg (Aug 18, 6:56 PM)
Average72 °F57%29.97 "Hg
* Reported Aug 6 7:56 PM — Aug 21 7:56 PM, Salem, Weather by CustomWeather, © 2014

Note: Actual official high and low records may vary slightly from our data, if they occured in-between our weather recording intervals... More about our weather records

Advertising

Salem weather history for previous 24 hours

 ConditionsComfort  
Time TempWeatherWind HumidityBarometerVisibility
7:56 PM
Aug 21
74 °FSunny.10 mph31%29.93 "Hg10 mi
6:56 PM80 °FScattered clouds.10 mph25%29.92 "Hg10 mi
5:56 PM81 °FPassing clouds.3 mph25%29.93 "Hg10 mi
4:56 PM82 °FSunny.No wind19%29.94 "Hg10 mi
3:56 PM82 °FPassing clouds.No wind16%29.96 "Hg10 mi
2:56 PM80 °FPassing clouds.6 mph21%29.98 "Hg10 mi
1:56 PM77 °FSunny.5 mph33%30.00 "Hg10 mi
12:56 PM73 °FSunny.3 mph44%30.01 "Hg10 mi
11:56 AM69 °FScattered clouds.No wind51%30.03 "Hg10 mi
10:56 AM67 °FScattered clouds.5 mph55%30.04 "Hg10 mi
9:56 AM63 °FPassing clouds.3 mph65%30.05 "Hg10 mi
8:56 AM60 °FSunny.8 mph69%30.06 "Hg10 mi
7:56 AM58 °FSunny.7 mph78%30.05 "Hg10 mi
6:56 AM54 °FClear.5 mph83%30.04 "Hg10 mi
5:56 AM49 °FClear.No wind90%30.03 "Hg10 mi
4:56 AM52 °FClear.No wind83%30.03 "Hg10 mi
3:56 AM53 °FClear.No wind83%30.03 "Hg10 mi
2:56 AM52 °FClear.No wind83%30.03 "Hg10 mi
1:56 AM57 °FClear.No wind74%30.01 "Hg10 mi
12:56 AM59 °FClear.No wind69%30.01 "Hg10 mi
11:56 PM
Aug 20
59 °FClear.6 mph67%30.00 "Hg10 mi
10:56 PM63 °FClear.3 mph60%29.99 "Hg10 mi
9:56 PM64 °FClear.6 mph56%29.98 "Hg10 mi
Weather by CustomWeather, © 2014

See weather overviewHow to use our weather pages